Evansville, IN

7:18 PM CDT on August 21, 2017 (GMT -0500)
Evansville Regional

Weather History for KEVV - March, 2014

Change the Weather History Date:

Wednesday, March 19, 2014

  Actual Average Record
Temperature  
Mean Temperature 46 °F 47 °F  
Max Temperature 56 °F 58 °F 83 °F (2012)
Min Temperature 36 °F 36 °F 10 °F (1923)
Degree Days  
Heating Degree Days 19 18  
Month to date heating degree days 468 399  
Since 1 July heating degree days 4430 3973  
Cooling Degree Days 0 0  
Month to date cooling degree days 0 0  
Year to date cooling degree days 0 0  
Moisture  
Dew Point 39 °F    
Average Humidity 67    
Maximum Humidity 80    
Minimum Humidity 54    
Precipitation  
Precipitation 0.04 in 0.15 in 4.16 in (1943)
Month to date precipitation 1.35 2.47  
Year to date precipitation 5.30 8.74  
Snow  
Snow 0.00 in 0.00 in 6.60 in (1996)
Month to date snowfall 2.4 0.8  
Since 1 July snowfall 12.4 11.5  
Snow Depth 0.00 in    
Sea Level Pressure  
Sea Level Pressure 29.92 in    
Wind  
Wind Speed 17 mph (SW)    
Max Wind Speed 18 mph    
Max Gust Speed 26 mph    
Visibility 9 miles    
Events Rain    
T = Trace of Precipitation, MM = Missing Value Source: NWS Daily Summary

Daily Weather History Graph

Daily Weather History Graph

Search for Another Location

Airport or City:

Trip Planner

Search our weather history database for the weather conditions in past years. The results will help you decide how hot, cold, wet, or windy it might be!

Date:

Astronomy

Mar. 19, 2014 Rise Set
Actual Time 6:55 AM CDT 7:01 PM CDT
Civil Twilight 6:28 AM CDT 7:27 PM CDT
Nautical Twilight 5:58 AM CDT 7:58 PM CDT
Astronomical Twilight 5:27 AM CDT 8:29 PM CDT
Moon 10:15 PM CDT (3/19) 8:23 AM CDT (3/19)
Length of Visible Light 12h 58m
Length of Day
12h 05m
Waning Gibbous, 91% of the Moon is Illuminated
Mar 19
Waning Gibbous
Mar 23
Last Quarter
Mar 30
New
Apr 7
First Quarter
Apr 15
Full

Hourly Weather History & Observations

Time (CDT) Temp. Dew Point Humidity Pressure Visibility Wind Dir Wind Speed Gust Speed Precip Events Conditions
12:54 AM 48.9 °F 41.0 °F 74% 29.83 in 10.0 mi North - - N/A   Clear
1:54 AM 48.9 °F 42.1 °F 77% 29.82 in 10.0 mi North - - N/A   Clear
2:54 AM 48.9 °F 42.1 °F 77% 29.80 in 10.0 mi North - - N/A   Clear
3:54 AM 48.9 °F 42.1 °F 77% 29.79 in 10.0 mi North - - 0.00 in Rain Light Rain
4:54 AM 48.9 °F 43.0 °F 80% 29.79 in 10.0 mi North - - 0.00 in Rain Light Rain
5:54 AM 50.0 °F 43.0 °F 77% 29.76 in 10.0 mi South 11.5 mph 18.4 mph 0.04 in   Clear
6:54 AM 50.0 °F 43.0 °F 77% 29.78 in 10.0 mi South 15.0 mph 21.9 mph N/A   Overcast
7:54 AM 51.1 °F 44.1 °F 77% 29.79 in 4.0 mi North - - N/A   Haze
8:54 AM 52.0 °F 45.0 °F 77% 29.80 in 10.0 mi North - - N/A   Overcast
9:54 AM 52.0 °F 45.0 °F 77% 29.82 in 4.0 mi North - - N/A   Haze
10:25 AM 54.0 °F 46.0 °F 75% 29.83 in 10.0 mi SSW 15.0 mph 26.5 mph N/A   Overcast
10:54 AM 55.9 °F 46.0 °F 69% 29.84 in 10.0 mi WSW 18.4 mph 26.5 mph N/A   Mostly Cloudy
11:54 AM 55.0 °F 42.1 °F 62% 29.88 in 9.0 mi North - - N/A   Mostly Cloudy
12:54 PM 53.1 °F 41.0 °F 64% 29.91 in 8.0 mi North - - N/A   Overcast
1:39 PM 52.0 °F 39.9 °F 63% 29.93 in 9.0 mi North - - N/A   Overcast
1:54 PM 52.0 °F 39.9 °F 63% 29.93 in 8.0 mi West 17.3 mph - N/A   Overcast
2:54 PM 53.1 °F 39.0 °F 59% 29.94 in 10.0 mi North - - N/A   Overcast
3:54 PM 53.1 °F 37.0 °F 55% 29.97 in 8.0 mi North - - N/A   Overcast
4:54 PM 52.0 °F 36.0 °F 54% 29.99 in 10.0 mi North - - N/A   Overcast
5:54 PM 50.0 °F 36.0 °F 59% 30.04 in 10.0 mi North - - N/A   Overcast
6:54 PM 48.0 °F 34.0 °F 58% 30.06 in 10.0 mi North - - N/A   Overcast
7:54 PM 46.0 °F 33.1 °F 61% 30.09 in 10.0 mi North - - N/A   Mostly Cloudy
8:54 PM 43.0 °F 30.9 °F 62% 30.12 in 10.0 mi North - - N/A   Partly Cloudy
9:54 PM 42.1 °F 30.9 °F 65% 30.14 in 10.0 mi North - - N/A   Clear
10:54 PM 39.9 °F 30.0 °F 68% 30.15 in 10.0 mi North - - N/A   Clear
11:54 PM 37.0 °F 30.9 °F 79% 30.16 in 8.0 mi North - - N/A   Clear